GSAT-6A (43241 NORAD) Tracking and Keplerian Element Data

This shows tracking and keplerian element data for the satellite.

Feedback or suggestion? Click here.




ElementValue
Catalog43241
NameGSAT-6A
Epoch Orbit37
Epoch Day116.99550705
Epoch Year2018
RAAN292.4579
Inclination3.2601
Eccentricity0.1383534
Argument of Perigee185.3703
Mean Anonmoly172.6179
Mean Motion1.19302264
Decay Rate-1.9E-06
L11 43241U 18027A 18116.99550705 -.00000190 00000-0 00000+0 0 9999
L22 43241 3.2601 292.4579 1383534 185.3703 172.6179 1.19302264 371

Live tracking and technical data element details for GSAT-6A (NORAD 43241). GSAT-6A can be tracked NOW for your location showing map with azimuth and elevation plus other details from your city location.

Track the satellite on the map from your city or location and see movement details for azimuth, elevation, latitude, longitude, range, height, and movement on the map or in text.







IsCatalogInMostPopularTable: catalog: 43241, numindb: 51
Update: records affected: 1



GetName: 43241 GSAT-6A

Hit Count: updated at: Thu, 15 Nov 2018 03:48:15 GMT